FW3260 Weather Reports


Display with metric or nautical units.
time (UTC)temp
F
wind
direction
speed
MPH
gust
MPH
rain 1hr
in
rain 24hr
in
rain mn
in
humidity
%
barometer
mb
20260906183019 68 270 1.0 3.0 0.00 0.35 0.33 74 1015.9
20260906182018 67 90 1.0 4.0 0.00 0.35 0.33 77 1015.9
20260906181039 65 113 1.0 3.0 0.00 0.35 0.33 79 1016.1
20260906180018 65 90 1.0 4.0 0.00 0.35 0.33 78 1016.0
20260906175018 66 68 2.0 6.0 0.00 0.35 0.33 78 1016.1
20260906174018 68 293 1.0 3.0 0.00 0.35 0.33 76 1016.2
20260906173018 68 203 1.0 3.0 0.00 0.35 0.33 76 1016.2
20260906172018 67 248 1.0 4.0 0.00 0.35 0.33 76 1016.3
20260906171020 67 338 2.0 6.0 0.00 0.35 0.33 74 1016.2
20260906170018 68 315 1.0 2.0 0.00 0.35 0.33 74 1016.2
20260906165018 69 293 1.0 3.0 0.00 0.35 0.33 79 1016.3
20260906164018 67 90 2.0 6.0 0.00 0.35 0.33 79 1016.3
20260906163018 66 45 1.0 3.0 0.01 0.35 0.33 83 1016.4
20260906162019 66 293 1.0 3.0 0.02 0.35 0.33 85 1016.4
20260906161018 64 270 1.0 3.0 0.02 0.35 0.33 85 1016.6
20260906160038 64 90 1.0 4.0 0.02 0.35 0.33 86 1016.7
20260906155038 63 113 1.0 3.0 0.02 0.35 0.33 87 1016.8
20260906154018 64 0.0 2.0 0.02 0.35 0.33 86 1016.8
20260906153018 64 90 1.0 3.0 0.01 0.34 0.32 84 1017.0
20260906152018 65 90 1.0 4.0 0.00 0.33 0.31 84 1017.0
20260906151018 64 68 1.0 4.0 0.00 0.33 0.31 85 1016.8
20260906150018 65 90 1.0 4.0 0.00 0.33 0.31 86 1017.0
20260906145018 64 90 1.0 3.0 0.00 0.33 0.31 87 1017.0
20260906144018 64 270 2.0 7.0 0.00 0.33 0.31 86 1017.0
20260906143018 64 113 1.0 6.0 0.00 0.33 0.31 89 1016.9
20260906142038 63 0.0 3.0 0.00 0.33 0.31 91 1016.8
20260906141018 62 270 1.0 3.0 0.00 0.33 0.31 93 1016.8
20260906140058 61 90 1.0 3.0 0.00 0.33 0.31 94 1016.8
20260906135018 61 225 1.0 2.0 0.00 0.33 0.31 95 1016.7
20260906134019 60 0.0 1.0 0.00 0.33 0.31 96 1016.9
20260906133018 60 0.0 1.0 0.00 0.33 0.31 96 1016.9
20260906132018 60 0.0 2.0 0.00 0.33 0.31 96 1016.9
20260906131018 60 0.0 1.0 0.01 0.33 0.31 96 1016.8
20260906130018 59 225 1.0 2.0 0.01 0.33 0.31 96 1016.8
20260906125018 59 203 1.0 2.0 0.01 0.33 0.31 96 1016.8
20260906124018 59 315 1.0 2.0 0.01 0.33 0.31 96 1016.8
20260906123018 59 0.0 2.0 0.01 0.33 0.31 96 1016.8
20260906122018 58 0.0 0.0 0.01 0.33 0.31 96 1016.7
20260906121018 58 0.0 0.0 0.00 0.32 0.30 95 1016.5
20260906120018 58 0.0 0.0 0.00 0.32 0.30 96 1016.5
20260906115018 58 0.0 0.0 0.00 0.32 0.30 96 1016.4
20260906114038 58 0.0 0.0 0.00 0.32 0.30 95 1016.3
20260906113017 58 0.0 1.0 0.00 0.32 0.30 95 1016.3
20260906112018 58 0.0 1.0 0.00 0.32 0.30 95 1016.2
20260906111017 58 0.0 1.0 0.00 0.32 0.30 95 1016.1
20260906110018 57 0.0 0.0 0.00 0.32 0.30 95 1015.9
20260906105018 57 0.0 0.0 0.00 0.32 0.30 95 1015.8
20260906104018 57 0.0 0.0 0.00 0.32 0.30 95 1015.7
20260906103018 57 0.0 0.0 0.02 0.32 0.30 95 1015.5
20260906102038 57 0.0 1.0 0.08 0.32 0.30 95 1015.2
20260906101018 57 0.0 0.0 0.15 0.32 0.30 95 1015.4
20260906100058 57 0.0 2.0 0.19 0.32 0.30 95 1015.3
20260906095017 57 0.0 1.0 0.23 0.32 0.30 95 1015.4
20260906094018 57 90 1.0 2.0 0.27 0.32 0.30 95 1015.1
20260906093017 57 90 1.0 3.0 0.26 0.30 0.28 94 1015.3
20260906092019 58 113 1.0 3.0 0.20 0.24 0.22 94 1015.4
20260906091021 59 113 1.0 5.0 0.14 0.17 0.15 94 1015.2
20260906090020 60 90 3.0 11.0 0.10 0.13 0.11 95 1015.1
20260906085019 60 0.0 2.0 0.06 0.09 0.07 95 1014.8
20260906084019 60 158 1.0 3.0 0.02 0.05 0.03 95 1014.7
20260906083019 60 0.0 2.0 0.01 0.04 0.02 95 1014.7
20260906082019 60 0.0 0.0 0.01 0.04 0.02 95 1014.6
20260906081019 60 0.0 0.0 0.00 0.03 0.01 95 1014.5
20260906080021 60 0.0 0.0 0.00 0.03 0.01 94 1014.3
20260906075039 60 0.0 0.0 0.00 0.03 0.01 95 1014.2
20260906074019 60 0.0 0.0 0.00 0.03 0.01 95 1014.1
20260906073039 60 0.0 0.0 0.00 0.03 0.01 95 1014.2
20260906072019 61 0.0 0.0 0.00 0.03 0.01 94 1014.4
20260906071019 61 0.0 0.0 0.01 0.03 0.01 94 1014.2
20260906070020 61 0.0 0.0 0.01 0.03 0.01 94 1014.3
20260906065019 61 0.0 0.0 0.01 0.03 0.01 94 1014.3
20260906064041 61 0.0 0.0 0.01 0.03 0.01 94 1014.3
20260906063019 61 0.0 0.0 0.01 0.03 0.01 94 1014.3
20260906062039 61 0.0 0.0 0.01 0.03 0.01 94 1014.4
20260906061019 61 0.0 0.0 0.00 0.02 0.00 94 1014.3
20260906060019 61 0.0 0.0 0.00 0.02 0.00 94 1014.3
20260906055019 61 0.0 0.0 0.00 0.02 0.00 94 1014.3
20260906054039 61 0.0 0.0 0.00 0.02 0.00 94 1014.3
20260906053019 61 0.0 0.0 0.00 0.02 0.00 94 1014.3
20260906052019 61 0.0 0.0 0.00 0.02 0.00 94 1014.4
20260906051039 62 0.0 0.0 0.00 0.02 0.00 94 1014.4
20260906050019 62 0.0 0.0 0.00 0.02 0.00 94 1014.6
20260906045028 62 0.0 0.0 0.00 0.02 0.00 94 1014.6
20260906044019 62 0.0 2.0 0.00 0.02 0.00 94 1014.5
20260906043019 62 0.0 2.0 0.00 0.02 0.00 94 1014.5
20260906042019 62 0.0 0.0 0.00 0.02 0.00 94 1014.5
20260906041019 62 0.0 0.0 0.00 0.02 0.00 94 1014.6
20260906040019 62 0.0 2.0 0.00 0.02 0.02 94 1014.4
20260906035019 62 0.0 1.0 0.00 0.02 0.02 94 1014.4
20260906034019 62 0.0 1.0 0.00 0.02 0.02 94 1014.3
20260906033019 62 0.0 1.0 0.00 0.02 0.02 93 1014.2
20260906032018 62 0.0 1.0 0.00 0.02 0.02 93 1014.1
20260906031019 62 0.0 2.0 0.00 0.02 0.02 93 1014.1
20260906030059 63 0.0 0.0 0.00 0.02 0.02 93 1014.2
20260906025019 63 0.0 1.0 0.00 0.02 0.02 93 1014.2
20260906024019 63 0.0 2.0 0.00 0.02 0.02 93 1014.3
20260906023019 63 0.0 1.0 0.00 0.02 0.02 93 1014.3
20260906022039 63 0.0 2.0 0.00 0.02 0.02 93 1014.2
20260906021019 63 0.0 1.0 0.00 0.02 0.02 93 1014.1
20260906020019 63 0.0 0.0 0.00 0.02 0.02 92 1014.1
20260906015019 63 0.0 0.0 0.00 0.02 0.02 92 1014.1
20260906014019 63 0.0 0.0 0.00 0.02 0.02 92 1014.1
20260906013019 63 0.0 0.0 0.00 0.02 0.02 92 1014.1
20260906012019 63 0.0 0.0 0.00 0.02 0.02 92 1014.1
20260906011019 63 0.0 0.0 0.00 0.02 0.02 92 1014.3
20260906010019 63 0.0 0.0 0.00 0.02 0.02 91 1014.1
20260906005019 63 0.0 2.0 0.01 0.02 0.02 91 1014.0
20260906004039 64 0.0 0.0 0.01 0.02 0.02 91 1014.0
20260906003019 64 0.0 1.0 0.01 0.02 0.02 91 1013.7
20260906002019 64 0.0 0.0 0.01 0.02 0.02 90 1013.8
20260906001019 64 0.0 0.0 0.01 0.02 0.02 90 1013.7
20260906000019 64 0.0 1.0 0.01 0.02 0.02 90 1013.6
20260905235019 64 225 1.0 2.0 0.00 0.01 0.01 89 1013.5
20260905234019 64 0.0 0.0 0.01 0.01 0.01 88 1013.4
20260905233059 64 0.0 0.0 0.01 0.01 0.01 88 1013.2
20260905232019 65 0.0 0.0 0.01 0.01 0.01 87 1013.1
20260905231019 65 0.0 0.0 0.01 0.01 0.01 87 1013.1
20260905230019 65 0.0 0.0 0.01 0.01 0.01 86 1013.0
20260905225039 65 0.0 0.0 0.01 0.01 0.01 86 1012.9
20260905224019 65 0.0 0.0 0.00 0.00 0.00 86 1013.0
20260905223019 66 68 2.0 4.0 0.00 0.00 0.00 85 1012.8
20260905222018 66 68 2.0 8.0 0.00 0.00 0.00 83 1012.7
20260905221019 66 90 3.0 7.0 0.00 0.00 0.00 82 1012.7
20260905220019 67 90 4.0 9.0 0.00 0.00 0.00 81 1012.6
20260905215019 67 68 5.0 10.0 0.00 0.00 0.00 80 1012.5
20260905214039 68 68 5.0 9.0 0.00 0.00 0.00 78 1012.2
20260905213020 68 90 3.0 7.0 0.00 0.00 0.00 78 1012.0
20260905212039 69 68 3.0 8.0 0.00 0.00 0.00 78 1011.9
20260905211038 70 180 1.0 3.0 0.00 0.00 0.00 78 1011.9
20260905210018 70 0.0 0.0 0.00 0.00 0.00 78 1011.9
20260905205018 70 0.0 2.0 0.00 0.00 0.00 78 1011.8
20260905204018 70 0.0 1.0 0.00 0.00 0.00 78 1011.8
20260905203039 70 68 1.0 2.0 0.00 0.00 0.00 77 1011.7
20260905202019 71 68 1.0 4.0 0.00 0.00 0.00 77 1011.7
20260905201038 70 0.0 2.0 0.00 0.00 0.00 78 1011.5
20260905200018 70 68 1.0 6.0 0.00 0.00 0.00 79 1011.5
20260905195019 69 68 1.0 3.0 0.00 0.00 0.00 78 1011.5
20260905194018 69 68 2.0 5.0 0.00 0.00 0.00 79 1011.6
20260905193018 69 90 3.0 7.0 0.00 0.00 0.00 78 1011.5
20260905192020 70 90 2.0 4.0 0.00 0.00 0.00 76 1011.5
20260905191018 70 68 3.0 6.0 0.00 0.00 0.00 74 1011.4
20260905190018 71 68 1.0 4.0 0.00 0.00 0.00 73 1011.3
20260905185018 71 90 1.0 2.0 0.00 0.00 0.00 72 1011.4
20260905184018 72 90 2.0 4.0 0.00 0.00 0.00 71 1011.5